Regional Weather Roundup
Issued by NWS

Home | Current Version | Previous Version | Text Only | Print | Product List | Glossary Off
Versions: 1 2 3 4 5 6 7 8 9 10 11 12 13 14 15 16 17 18 19 20 21 22 23 24 25 26 27 28 29 30 31 32 33 34 35 36 37 38 39 40 41 42 43 44 45 46 47 48 49 50

000
ASUS43 KMKX 261321
RWRWI

WISCONSIN REGIONAL WEATHER ROUNDUP
NATIONAL WEATHER SERVICE MILWAUKEE/SULLIVAN WI
700 AM CST WED NOV 26 2014

NOTE: "FAIR" INDICATES FEW OR NO CLOUDS BELOW 12,000 FEET WITH NO
SIGNIFICANT WEATHER AND/OR OBSTRUCTIONS TO VISIBILITY.

WIZ001-002-006>008-014>016-023>028-261400-
NORTHWEST WISCONSIN

CITY           SKY/WX    TMP DP  RH WIND       PRES   REMARKS
SUPERIOR ARPT  LGT SNOW  18  16  92 NW5       30.16R WCI  11
ASHLAND        LGT SNOW  19  16  88 SW3       30.14R FOG
HAYWARD        CLOUDY    20  16  84 CALM      30.09R
SIREN          CLOUDY    22  17  83 CALM      30.11R
CUMBERLAND     CLOUDY    21  18  86 CALM      30.08R
RICE LAKE      CLOUDY    21  17  83 CALM      30.11R
CHETEK         CLOUDY    21  17  85 CALM      30.10R
LADYSMITH      CLOUDY    21  18  88 E7        30.10R WCI  13
EAU CLAIRE     CLOUDY    21  15  78 E5        30.10R WCI  15
MENOMONIE      CLOUDY    22  17  78 E9        30.09S WCI  12
NEW RICHMOND   CLOUDY    23  15  73 E6        30.09R WCI  15
OSCEOLA        CLOUDY    24  17  74 NE3       30.12R
$$

WIZ003>005-009-010-017-018-261400-
NORTH CENTRAL WISCONSIN

CITY           SKY/WX    TMP DP  RH WIND       PRES   REMARKS
MANITOWISH WTR FLURRIES  15  14  95 CALM      30.06S
ARBOR VITAE    CLOUDY    17  15  90 CALM      30.07R
WOODRUFF       CLOUDY    17  15  90 CALM      30.07R
RHINELANDER    CLOUDY    14  11  87 CALM      30.07S
EAGLE RIVER    CLOUDY    14  10  85 CALM      30.06S
LAND O LAKES   CLOUDY    10   8  89 CALM      30.08R
PHILLIPS       CLOUDY    18  15  88 CALM      30.07R
TOMAHAWK       CLOUDY    15  13  91 CALM      30.09R
MEDFORD        CLOUDY    17  14  88 CALM      30.07S
MERRILL        CLOUDY    15  13  92 CALM      30.10S
$$

WIZ029-030-035-036-043>047-261400-
CENTRAL WISCONSIN

CITY           SKY/WX    TMP DP  RH WIND       PRES   REMARKS
WAUSAU         CLOUDY    17  14  88 S6        30.10R WCI   9
MOSINEE        CLOUDY    16  16 100 CALM      30.11
MARSHFIELD     CLOUDY    18  14  84 E6        30.10R WCI  10
STEVENS POINT  CLOUDY    13  11  92 CALM      30.13R
WAUPACA        MOCLDY    12   8  86 CALM      30.15R
WAUTOMA        MOCLDY     6   3  87 CALM      30.14R
WISC RAPIDS    CLOUDY    16  11  80 E3        30.14R
CAMP DOUGLAS   CLOUDY    12  12 100 E3        30.12R
$$

WIZ011>013-019>022-031-037>040-048>050-261400-
NORTHEAST WISCONSIN

CITY           SKY/WX    TMP DP  RH WIND       PRES   REMARKS
ANTIGO         CLOUDY    14  13  95 CALM      30.09R FOG
SHAWANO        CLOUDY    16  14  89 CALM      30.15S
OCONTO         CLOUDY    12  11  95 CALM      30.17S
STURGEON BAY   PTCLDY    14   9  79 CALM      30.16R
GREEN BAY      CLOUDY    14  11  87 N5        30.16S WCI   6
MANITOWOC      PTCLDY    13  11  92 NW7       30.16R WCI   3
APPLETON       CLOUDY    18  18 100 CALM      30.13S
CLINTONVILLE   CLOUDY    16  14  93 CALM      30.15R
OSHKOSH        MOCLDY    15  12  88 CALM      30.13S FOG
$$

WIZ032>034-041-042-053>061-261400-
SOUTHWEST WISCONSIN

CITY           SKY/WX    TMP DP  RH WIND       PRES   REMARKS
LA CROSSE      CLOUDY    20  15  81 E8        30.11R WCI  10
SPARTA         CLOUDY    16  14  93 E5        30.12S WCI   9
VIROQUA        CLOUDY    15  15 100 E7        30.07R WCI   5
BOSCOBEL       CLOUDY    14  10  84 CALM      30.12R
PRAIRIE DU CHI CLOUDY    18  15  85 CALM      30.10R
PLATTEVILLE    MOCLDY    15  13  92 E9        30.07F WCI   3
$$

WIZ056-057-062-063-064-067-068-261400-
SOUTH CENTRAL WISCONSIN

CITY           SKY/WX    TMP DP  RH WIND       PRES   REMARKS
REEDSBURG      FAIR       9   7  92 CALM      30.12R
BARABOO/DELLS  FAIR       8   5  89 CALM      30.11S
LONE ROCK      PTCLDY    13   5  70 CALM      30.13R
MINERAL POINT  CLOUDY    18  16  93 E6        30.07S FOG     WCI   9
MADISON        CLOUDY    14  11  87 S7        30.12R FOG     WCI   4
MIDDLETON      CLOUDY    12   8  85 CALM      30.12R
WATERTOWN      PTCLDY     9   8  94 CALM      30.13S FOG
MONROE         CLOUDY    14  14 100 E5        30.09S FOG     WCI   6
JANESVILLE     FOG       16  14  93 E3        30.13S VSB 1/4
$$

WIZ051-052-058>065-066-070>072-261400-
SOUTHEAST WISCONSIN

CITY           SKY/WX    TMP DP  RH WIND       PRES   REMARKS
MILWAUKEE      CLOUDY    16  13  88 VRB3      30.16S FOG
WAUKESHA       CLEAR      7   5  92 SE3       30.15
MILWAUKEE/TIMM PTCLDY    14  12  92 CALM      30.16S
RACINE         CLOUDY    17  15  92 CALM      30.17F FOG
BURLINGTON     FOG       14  13  95 E5        30.15S VSB 1/4 WCI   6
KENOSHA        MOCLDY    18  15  88 CALM      30.15F FOG
FOND DU LAC    MOCLDY    11   6  81 S3        30.13F
SHEBOYGAN      CLOUDY    18  15  88 CALM      30.14S
WEST BEND      PTCLDY    18  14  86 CALM      30.14S FOG
JUNEAU         PTCLDY    11  10  92 E3        30.14R FOG
$$

LSZ147-162-261400-
LAKE SUPERIOR

STATION/POSITION TIME  TEMP    WIND        PRES    WAVE
                       AIR SEA DIR/SP/G            HT/PER
                 (UTC) (F)     (DEG/KT/KT) (MB)    (FT/S)
DEVILS ISLAND    1300   26      10/  6/  7 1021.3R
PORT WING        1200   20     160/  3/  4 1020.3
SAXON HARBOR     1240   19      CALM  /  3 1020.3R
$$

LMZ867-665-643>646-261400-
LAKE MICHIGAN

STATION/POSITION TIME  TEMP    WIND        PRES    WAVE
                       AIR SEA DIR/SP/G            HT/PER
                 (UTC) (F)     (DEG/KT/KT) (MB)    (FT/S)
CHAMBERS ISLAND  1200   21     260/  2/  4 1021.3S
N MID LAKE BUOY  1250   29 42  200/  2/  4 1021.8R   1
NORTHPORT PIER   1206   21     270/  3/  6 1021.0S
SISTER BAY       1228             CALM       N/A
KEWAUNEE LAKESHO 1300   15     290/  3/  6 1020.5R
SHEBOYGAN LAKESH 1300   21 36  220/  4/  5 1022.1F
PORT WASHINGTON  1200   20     250/  6/  8 1022.0S
MILWAUKEE LAKESH 1300   21     230/  6/  7   N/A
S MID LAKE BUOY  1250   29 42  260/  2/  4 1022.1R   1/ 4
KENOSHA   LAKESH 1300   18     290/  3/  6 1021.0F
$$

TC  - TEMPERATURE IN CELSIUS
VSB - VISIBILITY IN STATUTE MILES
WCI - WIND CHILL INDEX
HX  - HEAT INDEX



USA.gov is the U.S. government's official web portal to all federal, state and local government web resources and services.